User: anonymous   Login
Location: ????????
(60.5616°N, 46.8254°E)
Time: 07:59:30
(UTC+00:00)
Language:

Genesis I - Orbit

View from above orbital plane
View from above orbital plane
View from above satellite
View from above satellite

Ground track
Ground track

The orbit data is extracted from the following two-line orbital elements,

1 29252U 06029A   20157.75050126  .00000358  00000-0  27448-4 0  9993
2 29252  64.5213 339.8601 0013002 179.3289 180.7855 15.18125639766406
Epoch (UTC): 05 June 2020 18:00:43
Eccentricity: 0.0013002
inclination: 64.5213°
perigee height: 502 km
apogee height: 520 km
right ascension of ascending node: 339.8601°
argument of perigee: 179.3289°
revolutions per day: 15.18125639
mean anomaly at epoch: 180.7855°
orbit number at epoch: 76640

The dashed part of the orbit path shows where the satellite is in the earth's shadow,  

DLR